Weather History for KMKN - October, 2012

Change the Weather History Date:

Sunday, October 7, 2012

  Actual Average (KSEP) Record (KSEP)
Temperature  
Mean Temperature 46 °F -  
Max Temperature 50 °F 78 °F 98 °F (1979)
Min Temperature 42 °F 54 °F 38 °F (1952)
Degree Days  
Heating Degree Days 19    
Moisture  
Dew Point 36 °F    
Average Humidity 69    
Maximum Humidity 100    
Minimum Humidity 57    
Precipitation  
Precipitation 0.00 in - - ()
Sea Level Pressure  
Sea Level Pressure 30.25 in    
Wind  
Wind Speed 10 mph (NNE)    
Max Wind Speed 16 mph    
Max Gust Speed 18 mph    
Visibility 10 miles    
Events Rain    
Averages and records for this station are not official NWS values.
T = Trace of Precipitation, MM = Missing Value Source: NWS Daily Summary

Daily Weather History Graph

Daily Weather History Graph

Search for Another Location

Airport or City:

Trip Planner

Search our weather history database for the weather conditions in past years. The results will help you decide how hot, cold, wet, or windy it might be!

Date:

Astronomy

Oct. 07, 2012 Rise Set
Actual Time 7:32 AM CDT 7:11 PM CDT
Civil Twilight 7:08 AM CDT 7:35 PM CDT
Nautical Twilight 6:39 AM CDT 8:03 PM CDT
Astronomical Twilight 6:11 AM CDT 8:31 PM CDT
Moon No Moon Rise 1:56 PM CDT (10/7)
Length of Visible Light 12h 27m
Length of Day
11h 38m
Waning Gibbous, 56% of the Moon is Illuminated
Oct 7
Waning Gibbous
Oct 8
Last Quarter
Oct 15
New
Oct 21
First Quarter
Oct 29
Full

Hourly Weather History & Observations

Time (CDT) Temp. Windchill Dew Point Humidity Pressure Visibility Wind Dir Wind Speed Gust Speed Precip Events Conditions
12:15 AM 44.6 °F 37.4 °F 42.8 °F 93% 30.25 in 5.0 mi NNE 16.1 mph - N/A Rain Light Rain
12:35 AM 42.8 °F 36.2 °F 42.8 °F 100% 30.25 in 4.0 mi NNE 12.7 mph - N/A Rain Light Rain
12:55 AM 42.8 °F 35.4 °F 42.8 °F 100% 30.25 in 5.0 mi NNE 15.0 mph - N/A   Light Drizzle
1:15 AM 42.8 °F 36.6 °F 41.0 °F 93% 30.25 in 10.0 mi NNE 11.5 mph - N/A   Overcast
1:35 AM 42.8 °F 36.6 °F 41.0 °F 93% 30.26 in 10.0 mi NNE 11.5 mph - N/A   Overcast
2:15 AM 42.8 °F 37.0 °F 41.0 °F 93% 30.26 in 10.0 mi NNE 10.4 mph 18.4 mph N/A   Overcast
2:35 AM 42.8 °F 36.6 °F 39.2 °F 87% 30.26 in 10.0 mi NNE 11.5 mph - N/A   Overcast
2:55 AM 42.8 °F 36.2 °F 39.2 °F 87% 30.26 in 10.0 mi NNE 12.7 mph 16.1 mph N/A   Overcast
3:15 AM 44.6 °F 38.4 °F 37.4 °F 76% 30.26 in 10.0 mi NNE 12.7 mph 16.1 mph N/A   Overcast
3:35 AM 44.6 °F 39.2 °F 37.4 °F 76% 30.26 in 10.0 mi NNE 10.4 mph - N/A   Overcast
3:55 AM 44.6 °F 38.8 °F 37.4 °F 76% 30.25 in 10.0 mi NNE 11.5 mph - N/A   Overcast
4:15 AM 44.6 °F 38.8 °F 37.4 °F 76% 30.26 in 10.0 mi NNE 11.5 mph - N/A   Overcast
4:35 AM 44.6 °F 39.7 °F 37.4 °F 76% 30.26 in 10.0 mi NNE 9.2 mph - N/A   Overcast
4:55 AM 44.6 °F 38.8 °F 37.4 °F 76% 30.26 in 10.0 mi NE 11.5 mph - N/A   Overcast
5:15 AM 44.6 °F 40.2 °F 37.4 °F 76% 30.26 in 10.0 mi NNE 8.1 mph - N/A   Overcast
5:35 AM 44.6 °F 38.8 °F 35.6 °F 71% 30.26 in 10.0 mi NNE 11.5 mph 16.1 mph N/A   Overcast
5:55 AM 44.6 °F 38.8 °F 35.6 °F 71% 30.27 in 10.0 mi NNE 11.5 mph - N/A   Overcast
6:15 AM 44.6 °F 40.7 °F 37.4 °F 76% 30.27 in 10.0 mi NNE 6.9 mph - N/A   Overcast
6:35 AM 44.6 °F 40.2 °F 35.6 °F 71% 30.27 in 10.0 mi NNE 8.1 mph - N/A   Overcast
6:55 AM 44.6 °F 38.8 °F 35.6 °F 71% 30.28 in 10.0 mi NNE 11.5 mph - N/A   Overcast
7:15 AM 44.6 °F 38.8 °F 35.6 °F 71% 30.28 in 10.0 mi NNE 11.5 mph - N/A   Overcast
7:35 AM 44.6 °F 38.8 °F 35.6 °F 71% 30.28 in 10.0 mi NNE 11.5 mph - N/A   Overcast
7:55 AM 44.6 °F 38.8 °F 35.6 °F 71% 30.29 in 10.0 mi NE 11.5 mph - N/A   Overcast
8:15 AM 44.6 °F 40.2 °F 35.6 °F 71% 30.29 in 10.0 mi NE 8.1 mph - N/A   Overcast
8:55 AM 44.6 °F 39.7 °F 37.4 °F 76% 30.29 in 10.0 mi NNE 9.2 mph - N/A   Overcast
9:15 AM 44.6 °F 40.2 °F 37.4 °F 76% 30.29 in 10.0 mi NE 8.1 mph - N/A   Overcast
9:35 AM 44.6 °F 39.7 °F 35.6 °F 71% 30.30 in 10.0 mi NNE 9.2 mph - N/A   Overcast
9:55 AM 46.4 °F 41.9 °F 35.6 °F 66% 30.30 in 10.0 mi NE 9.2 mph - N/A   Overcast
10:15 AM 46.4 °F 41.5 °F 35.6 °F 66% 30.30 in 10.0 mi NE 10.4 mph - N/A   Overcast
10:35 AM 46.4 °F 41.5 °F 35.6 °F 66% 30.31 in 10.0 mi NE 10.4 mph - N/A   Overcast
10:55 AM 46.4 °F 42.4 °F 35.6 °F 66% 30.31 in 10.0 mi NE 8.1 mph - N/A   Overcast
11:15 AM 46.4 °F 41.9 °F 37.4 °F 71% 30.30 in 10.0 mi North 9.2 mph - N/A   Overcast
11:35 AM 46.4 °F 41.1 °F 37.4 °F 71% 30.30 in 10.0 mi NNE 11.5 mph - N/A   Overcast
11:55 AM 46.4 °F 41.9 °F 37.4 °F 71% 30.29 in 10.0 mi NNE 9.2 mph - N/A   Overcast
12:15 PM 46.4 °F 42.9 °F 35.6 °F 66% 30.28 in 10.0 mi NE 6.9 mph - N/A   Overcast
12:35 PM 46.4 °F 41.5 °F 37.4 °F 71% 30.28 in 10.0 mi NNE 10.4 mph - N/A   Overcast
12:55 PM 46.4 °F 42.9 °F 35.6 °F 66% 30.27 in 10.0 mi NE 6.9 mph - N/A   Overcast
1:15 PM 46.4 °F 41.9 °F 37.4 °F 71% 30.26 in 10.0 mi NE 9.2 mph - N/A   Overcast
1:35 PM 46.4 °F 42.4 °F 35.6 °F 66% 30.26 in 10.0 mi NNE 8.1 mph - N/A   Overcast
1:55 PM 48.2 °F - 35.6 °F 62% 30.25 in 10.0 mi NE 6.9 mph - N/A   Overcast
2:15 PM 48.2 °F - 35.6 °F 62% 30.24 in 10.0 mi NE 5.8 mph - N/A   Overcast
2:35 PM 50.0 °F - 35.6 °F 58% 30.22 in 10.0 mi NE 8.1 mph - N/A   Overcast
2:55 PM 50.0 °F - 35.6 °F 58% 30.21 in 10.0 mi NNE 6.9 mph - N/A   Overcast
3:15 PM 50.0 °F - 35.6 °F 58% 30.21 in 10.0 mi North 9.2 mph - N/A   Overcast
3:35 PM 50.0 °F - 35.6 °F 58% 30.21 in 10.0 mi NNE 9.2 mph - N/A   Overcast
3:55 PM 50.0 °F - 35.6 °F 58% 30.20 in 10.0 mi North 10.4 mph - N/A   Overcast
4:15 PM 50.0 °F - 35.6 °F 58% 30.21 in 10.0 mi NNE 9.2 mph - N/A   Overcast
4:35 PM 50.0 °F - 35.6 °F 58% 30.21 in 10.0 mi North 9.2 mph - N/A   Overcast
4:55 PM 48.2 °F - 35.6 °F 62% 30.20 in 10.0 mi NNE 8.1 mph - N/A   Overcast
5:15 PM 48.2 °F - 35.6 °F 62% 30.21 in 10.0 mi NNE 6.9 mph - N/A   Overcast
5:35 PM 48.2 °F - 33.8 °F 58% 30.20 in 10.0 mi North 9.2 mph - N/A   Overcast
5:55 PM 48.2 °F - 33.8 °F 58% 30.21 in 10.0 mi NNE 11.5 mph - N/A   Overcast
6:15 PM 46.4 °F 41.9 °F 33.8 °F 62% 30.21 in 10.0 mi North 9.2 mph - N/A   Overcast
6:35 PM 46.4 °F 42.9 °F 33.8 °F 62% 30.22 in 10.0 mi NNE 6.9 mph - N/A   Overcast
7:15 PM 46.4 °F 41.5 °F 33.8 °F 62% 30.22 in 10.0 mi NNE 10.4 mph - N/A   Overcast
7:35 PM 46.4 °F 42.4 °F 33.8 °F 62% 30.24 in 10.0 mi NE 8.1 mph - N/A   Overcast
7:55 PM 46.4 °F 41.9 °F 32.0 °F 57% 30.23 in 10.0 mi NE 9.2 mph - N/A   Overcast
8:15 PM 46.4 °F 41.9 °F 32.0 °F 57% 30.24 in 10.0 mi NNE 9.2 mph - N/A   Overcast
8:35 PM 46.4 °F 44.3 °F 32.0 °F 57% 30.25 in 10.0 mi NE 4.6 mph - N/A   Overcast
8:55 PM 46.4 °F 44.3 °F 32.0 °F 57% 30.24 in 10.0 mi NE 4.6 mph - N/A   Overcast
9:15 PM 46.4 °F 45.2 °F 33.8 °F 62% 30.24 in 10.0 mi East 3.5 mph - N/A   Overcast
9:35 PM 46.4 °F 45.2 °F 33.8 °F 62% 30.25 in 10.0 mi NNE 3.5 mph - N/A   Overcast
9:55 PM 46.4 °F 43.5 °F 33.8 °F 62% 30.26 in 10.0 mi NNE 5.8 mph - N/A   Overcast
10:15 PM 46.4 °F 43.5 °F 33.8 °F 62% 30.26 in 10.0 mi NE 5.8 mph - N/A   Overcast
10:35 PM 46.4 °F 45.2 °F 32.0 °F 57% 30.26 in 10.0 mi NNE 3.5 mph - N/A   Overcast
10:55 PM 46.4 °F 45.2 °F 32.0 °F 57% 30.26 in 10.0 mi NE 3.5 mph - N/A   Overcast
11:15 PM 46.4 °F 44.3 °F 32.0 °F 57% 30.25 in 10.0 mi NNE 4.6 mph - N/A   Overcast
11:35 PM 46.4 °F 45.2 °F 32.0 °F 57% 30.25 in 10.0 mi NNE 3.5 mph - N/A   Overcast
11:55 PM 46.4 °F - 32.0 °F 57% 30.24 in 10.0 mi Calm Calm - N/A   Overcast